UAL1557 KLAX-KSFO

Flight info

Callsign UAL1557
Flight time N/A
Altitude 30000
Route SUMMR2 STOKD SERFR SERFR4
Aircraft B738/M-SDE2E3FGHIRWXY/LB1

Departure

Time N/A
Airport Los Angeles International Airport (KLAX)

Arrival

Time 2026-04-29 05:34
Airport San Francisco International Airport (KSFO)
Time Latitude Longitude Altitude Speed Heading
2026-04-29 05:26 37.60870 -122.40318 2111 ft 195 kts 288°
2026-04-29 05:26 37.61093 -122.42055 2535 ft 204 kts 274°
2026-04-29 05:27 37.61369 -122.43875 2677 ft 219 kts 298°
2026-04-29 05:27 37.63960 -122.45622 3034 ft 236 kts
2026-04-29 05:27 37.65464 -122.44933 3270 ft 225 kts 36°
2026-04-29 05:28 37.66422 -122.43531 3805 ft 205 kts 54°
2026-04-29 05:28 37.67161 -122.41997 3966 ft 208 kts 62°
2026-04-29 05:28 37.67701 -122.40179 3594 ft 232 kts 75°
2026-04-29 05:28 37.67825 -122.38114 3388 ft 239 kts 89°
2026-04-29 05:29 37.67538 -122.36034 2942 ft 255 kts 112°
2026-04-29 05:29 37.66442 -122.34366 3058 ft 240 kts 142°
2026-04-29 05:29 37.65116 -122.33109 2675 ft 243 kts 136°
2026-04-29 05:29 37.64097 -122.31445 2667 ft 227 kts 119°
2026-04-29 05:30 37.63466 -122.29849 2965 ft 187 kts 113°
2026-04-29 05:30 37.62958 -122.28471 2802 ft 166 kts 118°
2026-04-29 05:30 37.62243 -122.27447 2521 ft 153 kts 139°
2026-04-29 05:30 37.61330 -122.26640 1888 ft 168 kts 153°
2026-04-29 05:31 37.60235 -122.26368 1680 ft 151 kts 198°
2026-04-29 05:31 37.59327 -122.26949 1562 ft 141 kts 224°
2026-04-29 05:31 37.58934 -122.28085 1092 ft 151 kts 270°
2026-04-29 05:31 37.58904 -122.29376 1023 ft 147 kts 272°
2026-04-29 05:32 37.59009 -122.30635 962 ft 143 kts 289°
2026-04-29 05:32 37.59397 -122.31788 892 ft 143 kts 298°
2026-04-29 05:32 37.59901 -122.32903 797 ft 149 kts 301°
2026-04-29 05:32 37.60414 -122.34069 599 ft 156 kts 299°
2026-04-29 05:33 37.60942 -122.35296 285 ft 155 kts 297°
2026-04-29 05:33 37.61414 -122.36421 55 ft 135 kts 297°
2026-04-29 05:33 37.61804 -122.37367 17 ft 108 kts 296°
2026-04-29 05:33 37.62065 -122.37969 32 ft 55 kts 297°
2026-04-29 05:34 37.62156 -122.38268 32 ft 18 kts 263°
2026-04-29 05:34 37.62057 -122.38346 32 ft 17 kts 179°
2026-04-29 05:34 37.61978 -122.38231 32 ft 19 kts 118°
2026-04-29 05:34 37.61926 -122.38110 32 ft 8 kts 119°
2026-04-29 05:35 37.61897 -122.38049 32 ft 9 kts 121°
2026-04-29 05:35 37.61863 -122.37968 32 ft 10 kts 108°
2026-04-29 05:35 37.61909 -122.37958 32 ft 11 kts 317°
2026-04-29 05:35 37.61998 -122.38125 32 ft 31 kts 300°
2026-04-29 05:36 37.62101 -122.38369 32 ft 31 kts 297°
2026-04-29 05:36 37.62199 -122.38599 32 ft 28 kts 298°
2026-04-29 05:36 37.62265 -122.38806 31 ft 20 kts 277°
2026-04-29 05:36 37.62232 -122.38975 32 ft 19 kts 236°
2026-04-29 05:37 37.62152 -122.39076 32 ft 14 kts 212°
2026-04-29 05:37 37.62066 -122.39092 32 ft 9 kts 163°
2026-04-29 05:37 37.62022 -122.39065 32 ft 6 kts 142°
2026-04-29 05:37 37.61986 -122.39025 32 ft 7 kts 135°
2026-04-29 05:38 37.61949 -122.38953 32 ft 15 kts 115°
2026-04-29 05:38 37.61847 -122.38895 32 ft 19 kts 205°
2026-04-29 05:38 37.61834 -122.39012 32 ft 14 kts 291°
2026-04-29 05:38 37.61892 -122.39124 32 ft 15 kts 309°
2026-04-29 05:39 37.61953 -122.39236 32 ft 13 kts 294°
2026-04-29 05:39 37.61969 -122.39303 32 ft 0 kts 260°
2026-04-29 05:39 37.61960 -122.39314 32 ft 5 kts 207°
2026-04-29 05:39 37.61930 -122.39330 32 ft 3 kts 206°
2026-04-29 05:40 37.61918 -122.39339 32 ft 0 kts 207°